| time (UTC) | temp C | wind direction | speed KPH | gust KPH | rain 1hr cm | rain 24hr cm | rain mn cm | humidity % | barometer mb |
| 20260504204954 | 26 | 0 | 16.1 | 33.8 | 0.00 | 4.27 | 4.27 | 100 | 1010.0 |
| 20260504204452 | 26 | 0 | 14.5 | 27.4 | 0.00 | 4.27 | 4.27 | 100 | 1010.0 |
| 20260504203951 | 26 | 0 | 14.5 | 29.0 | 0.00 | 4.27 | 4.27 | 100 | 1010.0 |
| 20260504203448 | 26 | 0 | 12.9 | 22.5 | 0.00 | 4.27 | 4.27 | 100 | 1010.0 |
| 20260504202944 | 26 | 0 | 14.5 | 24.1 | 0.00 | 4.27 | 4.27 | 100 | 1010.0 |
| 20260504202441 | 26 | 0 | 12.9 | 29.0 | 0.00 | 4.27 | 4.27 | 100 | 1010.0 |
| 20260504201938 | 26 | 0 | 14.5 | 24.1 | 0.00 | 4.27 | 4.27 | 100 | 1010.0 |
| 20260504201435 | 26 | 0 | 16.1 | 29.0 | 0.00 | 4.27 | 4.27 | 100 | 1010.0 |
| 20260504200933 | 26 | 0 | 16.1 | 29.0 | 0.00 | 4.27 | 4.27 | 100 | 1010.0 |
| 20260504200429 | 26 | 0 | 16.1 | 30.6 | 0.00 | 4.27 | 4.27 | 100 | 1010.0 |
| 20260504195926 | 26 | 0 | 19.3 | 35.4 | 0.00 | 4.27 | 4.27 | 100 | 1009.6 |
| 20260504195422 | 26 | 0 | 17.7 | 33.8 | 0.00 | 4.27 | 4.27 | 100 | 1009.6 |
| 20260504194918 | 26 | 0 | 19.3 | 37.0 | 0.00 | 4.24 | 4.24 | 100 | 1009.6 |
| 20260504194414 | 26 | 0 | 14.5 | 27.4 | 0.00 | 4.24 | 4.24 | 100 | 1009.6 |
| 20260504193910 | 26 | 0 | 12.9 | 27.4 | 0.00 | 4.24 | 4.24 | 100 | 1010.0 |
| 20260504193408 | 26 | 0 | 14.5 | 27.4 | 0.00 | 4.24 | 4.24 | 100 | 1010.0 |
| 20260504192907 | 26 | 0 | 11.3 | 30.6 | 0.00 | 4.24 | 4.24 | 100 | 1010.0 |
| 20260504192403 | 26 | 0 | 14.5 | 22.5 | 0.00 | 4.22 | 4.22 | 100 | 1009.6 |
| 20260504191902 | 26 | 0 | 12.9 | 22.5 | 0.00 | 4.22 | 4.22 | 100 | 1009.6 |
| 20260504191400 | 26 | 0 | 16.1 | 24.1 | 0.00 | 4.22 | 4.22 | 100 | 1009.6 |
| 20260504190855 | 26 | 0 | 17.7 | 30.6 | 0.00 | 4.22 | 4.22 | 100 | 1009.6 |
| 20260504190351 | 26 | 0 | 12.9 | 29.0 | 0.00 | 4.22 | 4.22 | 100 | 1009.6 |
| 20260504185848 | 26 | 0 | 12.9 | 25.7 | 0.00 | 4.22 | 4.22 | 100 | 1009.6 |
| 20260504185345 | 26 | 0 | 8.0 | 20.9 | 0.00 | 4.19 | 4.19 | 100 | 1009.6 |
| 20260504184840 | 26 | 0 | 11.3 | 22.5 | 0.00 | 4.19 | 4.19 | 100 | 1009.6 |
| 20260504184337 | 26 | 0 | 14.5 | 30.6 | 0.00 | 4.19 | 4.19 | 100 | 1009.6 |
| 20260504183833 | 26 | 0 | 12.9 | 29.0 | 0.00 | 4.19 | 4.19 | 100 | 1009.3 |
| 20260504183330 | 26 | 0 | 11.3 | 22.5 | 0.00 | 4.19 | 4.19 | 100 | 1009.3 |
| 20260504182828 | 26 | 0 | 12.9 | 27.4 | 0.00 | 4.17 | 4.17 | 100 | 1009.6 |
| 20260504182325 | 26 | 0 | 19.3 | 33.8 | 0.00 | 4.17 | 4.17 | 100 | 1009.6 |
| 20260504181822 | 26 | 0 | 9.7 | 17.7 | 0.00 | 4.17 | 4.17 | 100 | 1009.6 |
| 20260504181319 | 26 | 0 | 11.3 | 19.3 | 1.19 | 4.11 | 4.11 | 100 | 1009.6 |
| 20260504180818 | 26 | 0 | 14.5 | 25.7 | 2.39 | 4.06 | 4.06 | 100 | 1009.6 |
| 20260504180316 | 26 | 0 | 14.5 | 29.0 | 1.19 | 3.99 | 3.99 | 100 | 1009.6 |
| 20260504175814 | 26 | 0 | 12.9 | 33.8 | 2.39 | 3.94 | 3.94 | 100 | 1010.0 |
| 20260504175311 | 26 | 0 | 8.0 | 17.7 | 4.80 | 3.76 | 3.76 | 100 | 1010.0 |
| 20260504174809 | 26 | 0 | 12.9 | 24.1 | 9.60 | 3.45 | 3.45 | 100 | 1010.0 |
| 20260504174306 | 26 | 0 | 12.9 | 25.7 | 3.61 | 3.30 | 3.30 | 100 | 1009.6 |
| 20260504173803 | 26 | 0 | 11.3 | 24.1 | 2.39 | 3.17 | 3.17 | 100 | 1009.6 |
| 20260504173259 | 26 | 0 | 12.9 | 24.1 | 2.39 | 3.07 | 3.07 | 100 | 1009.6 |
| 20260504172756 | 26 | 0 | 9.7 | 25.7 | 3.61 | 2.90 | 2.90 | 100 | 1009.6 |
| 20260504172253 | 26 | 0 | 16.1 | 27.4 | 9.60 | 2.64 | 2.64 | 100 | 1009.6 |
| 20260504171749 | 26 | 0 | 9.7 | 19.3 | 11.99 | 2.03 | 2.03 | 100 | 1009.6 |
| 20260504171246 | 26 | 0 | 11.3 | 20.9 | 11.99 | 1.68 | 1.68 | 100 | 1009.3 |
| 20260504170743 | 26 | 0 | 9.7 | 20.9 | 1.19 | 1.55 | 1.55 | 100 | 1009.0 |
| 20260504170240 | 26 | 0 | 8.0 | 17.7 | 1.19 | 1.50 | 1.50 | 100 | 1009.0 |
| 20260504160159 | 26 | 0 | 11.3 | 22.5 | 1.19 | 0.38 | 0.38 | 100 | 1009.3 |
| 20260504151126 | 26 | 0 | 16.1 | 27.4 | 0.00 | 0.03 | 0.03 | 100 | 1009.6 |
| 20260504150624 | 26 | 0 | 17.7 | 30.6 | 0.00 | 0.00 | 0.00 | 100 | 1010.0 |
| 20260504150121 | 26 | 0 | 14.5 | 27.4 | 0.00 | 0.00 | 0.00 | 100 | 1009.6 |
| 20260504141049 | 26 | 0 | 8.0 | 17.7 | 0.00 | 0.00 | 0.00 | 100 | 1010.3 |
| 20260504140546 | 26 | 0 | 11.3 | 24.1 | 0.00 | 0.00 | 0.00 | 100 | 1010.3 |
| 20260504130510 | 26 | 0 | 16.1 | 30.6 | 0.00 | 0.05 | 0.05 | 100 | 1011.3 |
| 20260504110357 | 26 | 0 | 9.7 | 16.1 | 0.00 | 0.05 | 0.05 | 100 | 1010.7 |
| 20260504100315 | 26 | 0 | 6.4 | 12.9 | 0.00 | 0.05 | 0.05 | 100 | 1010.3 |
| 20260504081708 | 26 | 0 | 3.2 | 3.2 | 0.00 | 0.05 | 0.05 | 100 | 1009.0 |
| 20260504081204 | 26 | 0 | 0.0 | 3.2 | 0.00 | 0.05 | 0.05 | 100 | 1009.0 |
| 20260504080701 | 26 | 0 | 1.6 | 3.2 | 0.00 | 0.05 | 0.05 | 100 | 1009.0 |
| 20260504080157 | 26 | 0 | 1.6 | 3.2 | 0.00 | 0.05 | 0.05 | 100 | 1009.0 |
| 20260504070125 | 26 | 0 | 6.4 | 14.5 | 0.00 | 0.05 | 0.05 | 100 | 1008.0 |
| 20260504050514 | 26 | 0 | 4.8 | 11.3 | 0.00 | 0.05 | 0.05 | 100 | 1008.0 |
| 20260504050011 | 26 | 0 | 4.8 | 8.0 | 0.00 | 0.05 | 0.05 | 100 | 1008.0 |
| 20260504045508 | 26 | 0 | 6.4 | 11.3 | 0.00 | 0.05 | 0.05 | 100 | 1008.0 |
| 20260504045003 | 26 | 0 | 4.8 | 14.5 | 0.00 | 0.05 | 0.05 | 100 | 1008.0 |
| 20260504044501 | 26 | 0 | 6.4 | 16.1 | 0.00 | 0.05 | 0.05 | 100 | 1008.0 |
| 20260504043957 | 26 | 0 | 3.2 | 8.0 | 0.00 | 0.05 | 0.05 | 100 | 1008.0 |
| 20260504043454 | 26 | 0 | 4.8 | 11.3 | 0.00 | 0.05 | 0.05 | 100 | 1008.0 |
| 20260504042952 | 26 | 0 | 4.8 | 12.9 | 0.00 | 0.05 | 0.05 | 100 | 1008.0 |
| 20260504042448 | 26 | 0 | 3.2 | 9.7 | 0.00 | 0.05 | 0.05 | 100 | 1008.0 |
| 20260504041945 | 26 | 0 | 4.8 | 14.5 | 0.00 | 0.05 | 0.05 | 100 | 1008.0 |
| 20260504041441 | 26 | 0 | 6.4 | 9.7 | 0.00 | 0.05 | 0.05 | 100 | 1008.0 |
| 20260504040937 | 26 | 0 | 6.4 | 12.9 | 0.00 | 0.05 | 0.05 | 100 | 1008.3 |
| 20260504040435 | 26 | 0 | 4.8 | 12.9 | 0.00 | 0.05 | 0.05 | 100 | 1008.3 |
| 20260504035931 | 26 | 0 | 9.7 | 25.7 | 0.00 | 0.05 | 0.05 | 100 | 1008.3 |
| 20260504035429 | 26 | 0 | 8.0 | 19.3 | 0.00 | 0.05 | 0.05 | 100 | 1008.3 |
| 20260504034925 | 26 | 0 | 8.0 | 19.3 | 0.00 | 0.05 | 0.05 | 100 | 1008.3 |
| 20260504034423 | 26 | 0 | 8.0 | 17.7 | 0.00 | 0.05 | 0.05 | 100 | 1008.3 |
| 20260504033920 | 26 | 0 | 9.7 | 20.9 | 0.00 | 0.05 | 0.05 | 100 | 1008.3 |
| 20260504033417 | 26 | 0 | 6.4 | 16.1 | 0.00 | 0.05 | 0.05 | 100 | 1008.3 |
| 20260504032914 | 26 | 0 | 6.4 | 20.9 | 0.00 | 0.05 | 0.05 | 100 | 1008.6 |
| 20260504032411 | 26 | 0 | 6.4 | 11.3 | 0.00 | 0.05 | 0.05 | 100 | 1008.6 |
| 20260504031908 | 26 | 0 | 8.0 | 16.1 | 0.00 | 0.05 | 0.05 | 100 | 1009.0 |
| 20260504031405 | 26 | 0 | 9.7 | 16.1 | 0.00 | 0.05 | 0.05 | 100 | 1009.0 |
| 20260504030901 | 26 | 0 | 6.4 | 17.7 | 0.00 | 0.05 | 0.05 | 100 | 1009.0 |
| 20260504030359 | 26 | 0 | 8.0 | 14.5 | 0.00 | 0.05 | 0.05 | 100 | 1009.0 |
| 20260504025854 | 26 | 0 | 8.0 | 16.1 | 0.00 | 0.05 | 0.05 | 100 | 1009.0 |
| 20260504025352 | 26 | 0 | 8.0 | 14.5 | 0.00 | 0.05 | 0.05 | 100 | 1009.0 |
| 20260504024848 | 26 | 0 | 9.7 | 20.9 | 0.00 | 0.05 | 0.05 | 100 | 1009.0 |
| 20260504024345 | 26 | 0 | 8.0 | 14.5 | 0.00 | 0.05 | 0.05 | 100 | 1009.0 |
| 20260504023842 | 26 | 0 | 3.2 | 9.7 | 0.00 | 0.05 | 0.05 | 100 | 1009.0 |
| 20260504023339 | 26 | 0 | 8.0 | 16.1 | 0.00 | 0.05 | 0.05 | 100 | 1009.0 |
| 20260504022834 | 26 | 0 | 8.0 | 14.5 | 0.00 | 0.05 | 0.05 | 100 | 1009.0 |
| 20260504022331 | 26 | 0 | 8.0 | 17.7 | 0.00 | 0.05 | 0.05 | 100 | 1009.0 |
| 20260504021828 | 26 | 0 | 8.0 | 14.5 | 0.00 | 0.05 | 0.05 | 100 | 1009.0 |
| 20260504021325 | 26 | 0 | 9.7 | 19.3 | 0.00 | 0.05 | 0.05 | 100 | 1009.0 |
| 20260504020822 | 26 | 0 | 11.3 | 20.9 | 0.00 | 0.05 | 0.05 | 100 | 1009.0 |
| 20260504020319 | 26 | 0 | 8.0 | 22.5 | 0.00 | 0.05 | 0.05 | 100 | 1009.0 |
| 20260504015815 | 26 | 0 | 8.0 | 17.7 | 0.00 | 0.05 | 0.05 | 100 | 1009.3 |
| 20260504015311 | 26 | 0 | 9.7 | 20.9 | 0.00 | 0.05 | 0.05 | 100 | 1009.3 |
| 20260504014807 | 26 | 0 | 9.7 | 16.1 | 0.00 | 0.05 | 0.05 | 100 | 1009.3 |
| 20260504014303 | 26 | 0 | 6.4 | 12.9 | 0.00 | 0.05 | 0.05 | 100 | 1009.3 |
| 20260504013801 | 26 | 0 | 6.4 | 17.7 | 0.00 | 0.05 | 0.05 | 100 | 1009.3 |
| 20260504013259 | 26 | 0 | 8.0 | 14.5 | 0.00 | 0.05 | 0.05 | 100 | 1009.6 |
| 20260504012755 | 26 | 0 | 8.0 | 17.7 | 0.00 | 0.05 | 0.05 | 100 | 1009.6 |
| 20260504012253 | 26 | 0 | 6.4 | 11.3 | 0.00 | 0.05 | 0.05 | 100 | 1009.6 |
| 20260504011750 | 26 | 0 | 6.4 | 11.3 | 0.00 | 0.05 | 0.05 | 100 | 1010.0 |
| 20260504011246 | 26 | 0 | 6.4 | 12.9 | 0.00 | 0.05 | 0.05 | 100 | 1010.3 |
| 20260504010743 | 26 | 0 | 6.4 | 11.3 | 0.00 | 0.05 | 0.05 | 100 | 1010.3 |
| 20260504010238 | 26 | 0 | 4.8 | 14.5 | 0.00 | 0.05 | 0.05 | 100 | 1010.7 |
| 20260504005735 | 26 | 0 | 4.8 | 11.3 | 0.00 | 0.05 | 0.05 | 100 | 1010.7 |
| 20260504005232 | 26 | 0 | 4.8 | 8.0 | 0.00 | 0.05 | 0.05 | 100 | 1010.7 |
| 20260504004730 | 26 | 0 | 4.8 | 8.0 | 0.00 | 0.05 | 0.05 | 100 | 1010.7 |
| 20260504004227 | 26 | 0 | 4.8 | 8.0 | 0.00 | 0.05 | 0.05 | 100 | 1010.7 |
| 20260504003723 | 26 | 0 | 8.0 | 14.5 | 0.00 | 0.05 | 0.05 | 100 | 1010.7 |
| 20260504003220 | 26 | 0 | 6.4 | 11.3 | 0.00 | 0.05 | 0.05 | 100 | 1010.7 |
| 20260504002717 | 26 | 0 | 6.4 | 11.3 | 0.00 | 0.05 | 0.05 | 100 | 1010.7 |
| 20260504002214 | 26 | 0 | 6.4 | 11.3 | 0.00 | 0.05 | 0.05 | 100 | 1010.7 |
| 20260504001712 | 26 | 0 | 6.4 | 11.3 | 0.00 | 0.05 | 0.05 | 100 | 1011.0 |
| 20260504001209 | 26 | 0 | 3.2 | 11.3 | 0.00 | 0.05 | 0.05 | 100 | 1011.0 |
| 20260504000705 | 26 | 0 | 0.0 | 0.0 | 0.00 | 0.05 | 0.05 | 100 | 1011.0 |
| 20260504000204 | 26 | 0 | 0.0 | 0.0 | 0.00 | 0.05 | 0.05 | 100 | 1011.0 |
| 20260503235701 | 26 | 0 | 0.0 | 0.0 | 0.00 | 0.05 | 0.05 | 100 | 1011.0 |
| 20260503235157 | 26 | 0 | 0.0 | 0.0 | 0.00 | 0.05 | 0.05 | 100 | 1011.0 |
| 20260503234655 | 26 | 0 | 1.6 | 4.8 | 0.00 | 0.05 | 0.05 | 100 | 1011.0 |
| 20260503234153 | 26 | 0 | 0.0 | 3.2 | 0.00 | 0.05 | 0.05 | 100 | 1011.0 |
| 20260503233649 | 26 | 0 | 4.8 | 6.4 | 0.00 | 0.05 | 0.05 | 100 | 1011.0 |
| 20260503233145 | 26 | 0 | 0.0 | 3.2 | 0.00 | 0.05 | 0.05 | 100 | 1011.0 |
| 20260503232642 | 26 | 0 | 3.2 | 4.8 | 0.00 | 0.05 | 0.05 | 100 | 1011.0 |
| 20260503232140 | 26 | 0 | 3.2 | 4.8 | 0.00 | 0.05 | 0.05 | 100 | 1011.0 |
| 20260503231638 | 26 | 0 | 3.2 | 6.4 | 0.00 | 0.05 | 0.05 | 100 | 1011.0 |
| 20260503231134 | 26 | 0 | 4.8 | 8.0 | 1.19 | 0.03 | 0.03 | 100 | 1011.0 |
| 20260503230631 | 26 | 0 | 6.4 | 9.7 | 0.00 | 0.03 | 0.03 | 100 | 1011.0 |
| 20260503230128 | 26 | 0 | 4.8 | 6.4 | 0.00 | 0.00 | 0.00 | 100 | 1011.3 |
| 20260503225625 | 26 | 0 | 6.4 | 8.0 | 0.00 | 0.00 | 0.00 | 100 | 1011.0 |
| 20260503225125 | 26 | 0 | 6.4 | 9.7 | 0.00 | 0.00 | 0.00 | 100 | 1011.0 |
| 20260503224622 | 26 | 0 | 8.0 | 9.7 | 0.00 | 0.00 | 0.00 | 100 | 1011.0 |
| 20260503224120 | 26 | 0 | 11.3 | 14.5 | 0.00 | 0.00 | 0.00 | 100 | 1011.0 |
| 20260503223618 | 26 | 0 | 8.0 | 11.3 | 0.00 | 0.00 | 0.00 | 100 | 1011.0 |
| 20260503223114 | 26 | 0 | 6.4 | 11.3 | 0.00 | 0.00 | 0.00 | 100 | 1011.0 |
| 20260503222612 | 26 | 0 | 6.4 | 11.3 | 0.00 | 0.00 | 0.00 | 100 | 1011.0 |
| 20260503222109 | 26 | 0 | 3.2 | 8.0 | 0.00 | 0.00 | 0.00 | 100 | 1011.0 |
| 20260503221607 | 26 | 0 | 1.6 | 4.8 | 0.00 | 0.00 | 0.00 | 100 | 1010.7 |
| 20260503221105 | 26 | 0 | 0.0 | 0.0 | 0.00 | 0.00 | 0.00 | 100 | 1010.7 |
| 20260503220601 | 26 | 0 | 0.0 | 0.0 | 0.00 | 0.00 | 0.00 | 100 | 1010.7 |
| 20260503220058 | 26 | 0 | 0.0 | 0.0 | 0.00 | 0.00 | 0.00 | 100 | 1010.7 |
| 20260503215555 | 26 | 0 | 0.0 | 0.0 | 0.00 | 0.00 | 0.00 | 100 | 1010.7 |
| 20260503215052 | 26 | 0 | 0.0 | 0.0 | 0.00 | 0.00 | 0.00 | 100 | 1010.7 |
| 20260503214550 | 26 | 0 | 0.0 | 0.0 | 0.00 | 0.00 | 0.00 | 100 | 1010.7 |
| 20260503214046 | 26 | 0 | 0.0 | 0.0 | 0.00 | 0.00 | 0.00 | 100 | 1010.3 |
| 20260503213544 | 26 | 0 | 0.0 | 0.0 | 0.00 | 0.00 | 0.00 | 100 | 1010.3 |
| 20260503213041 | 26 | 0 | 0.0 | 0.0 | 0.00 | 0.00 | 0.00 | 100 | 1010.3 |
| 20260503212538 | 26 | 0 | 0.0 | 0.0 | 0.00 | 0.00 | 0.00 | 100 | 1010.3 |
| 20260503212036 | 26 | 0 | 0.0 | 0.0 | 0.00 | 0.00 | 0.00 | 100 | 1010.0 |
| 20260503211533 | 26 | 0 | 0.0 | 0.0 | 0.00 | 0.00 | 0.00 | 100 | 1010.0 |
| 20260503211028 | 26 | 0 | 0.0 | 0.0 | 0.00 | 0.00 | 0.00 | 100 | 1010.0 |
| 20260503210525 | 26 | 0 | 0.0 | 0.0 | 0.00 | 0.00 | 0.00 | 100 | 1010.0 |
| 20260503210021 | 26 | 0 | 0.0 | 0.0 | 0.00 | 0.00 | 0.00 | 100 | 1009.6 |
| 20260503205518 | 26 | 0 | 0.0 | 0.0 | 0.00 | 0.00 | 0.00 | 100 | 1009.6 |